Monroe, WI

11:02 AM CDT on October 23, 2017 (GMT -0500)
Monroe Municipal

Weather History for KEFT - October, 2012

Change the Weather History Date:

Saturday, October 20, 2012

  Actual Average Record
Temperature  
Mean Temperature 47 °F -  
Max Temperature 57 °F 0 °F 77 °F (2000)
Min Temperature 37 °F - 26 °F (2002)
Degree Days  
Heating Degree Days 18    
Moisture  
Dew Point 37 °F    
Average Humidity 74    
Maximum Humidity 100    
Minimum Humidity 44    
Precipitation  
Precipitation 0.00 in - - ()
Sea Level Pressure  
Sea Level Pressure 29.79 in    
Wind  
Wind Speed 9 mph (West)    
Max Wind Speed 13 mph    
Max Gust Speed 21 mph    
Visibility 10 miles    
Events      
Averages and records for this station are not official NWS values.
T = Trace of Precipitation, MM = Missing Value Source: NWS Daily Summary

Daily Weather History Graph

Daily Weather History Graph

Search for Another Location

Airport or City:

Trip Planner

Search our weather history database for the weather conditions in past years. The results will help you decide how hot, cold, wet, or windy it might be!

Date:

Astronomy

Oct. 20, 2012 Rise Set
Actual Time 7:17 AM CDT 6:07 PM CDT
Civil Twilight 6:49 AM CDT 6:36 PM CDT
Nautical Twilight 6:16 AM CDT 7:08 PM CDT
Astronomical Twilight 5:43 AM CDT 7:41 PM CDT
Moon 12:57 PM CDT (10/20) 10:49 PM CDT (10/20)
Length of Visible Light 11h 46m
Length of Day
10h 49m
Waxing Crescent, 34% of the Moon is Illuminated
Oct 20
Waxing Crescent
Oct 21
First Quarter
Oct 29
Full
Nov 6
Last Quarter
Nov 13
New

Hourly Weather History & Observations

Time (CDT) Temp. Windchill Dew Point Humidity Pressure Visibility Wind Dir Wind Speed Gust Speed Precip Events Conditions
12:15 AM 41.0 °F 34.3 °F 41.0 °F 100% 29.66 in 10.0 mi West 11.5 mph - N/A   Overcast
12:35 AM 41.0 °F 34.7 °F 41.0 °F 100% 29.67 in 10.0 mi West 10.4 mph - N/A   Mostly Cloudy
12:55 AM 41.0 °F 34.7 °F 39.2 °F 93% 29.67 in 10.0 mi West 10.4 mph - N/A   Mostly Cloudy
1:15 AM 41.0 °F 34.7 °F 39.2 °F 93% 29.67 in 10.0 mi WNW 10.4 mph - N/A   Clear
1:35 AM 41.0 °F 34.7 °F 39.2 °F 93% 29.67 in 10.0 mi WNW 10.4 mph - N/A   Clear
1:55 AM 41.0 °F 35.2 °F 39.2 °F 93% 29.68 in 10.0 mi WNW 9.2 mph - N/A   Clear
2:15 AM 41.0 °F 34.7 °F 39.2 °F 93% 29.68 in 10.0 mi WNW 10.4 mph - N/A   Clear
2:35 AM 41.0 °F 35.2 °F 39.2 °F 93% 29.68 in 10.0 mi WNW 9.2 mph - N/A   Clear
2:55 AM 39.2 °F 32.5 °F 39.2 °F 100% 29.69 in 10.0 mi West 10.4 mph - N/A   Clear
3:15 AM 39.2 °F 32.5 °F 37.4 °F 93% 29.69 in 10.0 mi WNW 10.4 mph - N/A   Clear
3:35 AM 39.2 °F 33.0 °F 37.4 °F 93% 29.69 in 10.0 mi WNW 9.2 mph - N/A   Clear
3:55 AM 39.2 °F 33.0 °F 37.4 °F 93% 29.70 in 10.0 mi WNW 9.2 mph - N/A   Clear
4:15 AM 39.2 °F 33.0 °F 37.4 °F 93% 29.70 in 10.0 mi WNW 9.2 mph - N/A   Clear
4:35 AM 39.2 °F 32.5 °F 37.4 °F 93% 29.71 in 10.0 mi WNW 10.4 mph - N/A   Clear
4:55 AM 39.2 °F 33.0 °F 37.4 °F 93% 29.71 in 10.0 mi WNW 9.2 mph - N/A   Clear
5:15 AM 37.4 °F 31.4 °F 37.4 °F 100% 29.72 in 10.0 mi WNW 8.1 mph - N/A   Clear
5:35 AM 37.4 °F 32.1 °F 37.4 °F 100% 29.73 in 10.0 mi NW 6.9 mph - N/A   Clear
5:55 AM 37.4 °F 31.4 °F 37.4 °F 100% 29.73 in 10.0 mi WNW 8.1 mph - N/A   Clear
6:15 AM 37.4 °F 30.8 °F 37.4 °F 100% 29.74 in 10.0 mi WNW 9.2 mph - N/A   Clear
6:35 AM 39.2 °F 33.0 °F 37.4 °F 93% 29.74 in 10.0 mi WNW 9.2 mph - N/A   Clear
6:55 AM 37.4 °F 29.8 °F 37.4 °F 100% 29.75 in 10.0 mi West 11.5 mph - N/A   Clear
7:15 AM 37.4 °F 30.3 °F 37.4 °F 100% 29.75 in 10.0 mi West 10.4 mph - N/A   Clear
7:35 AM 37.4 °F 30.8 °F 37.4 °F 100% 29.76 in 10.0 mi WNW 9.2 mph - N/A   Clear
7:55 AM 37.4 °F 30.8 °F 37.4 °F 100% 29.77 in 10.0 mi West 9.2 mph - N/A   Clear
8:15 AM 39.2 °F 33.6 °F 37.4 °F 93% 29.78 in 10.0 mi WNW 8.1 mph - N/A   Clear
8:35 AM 41.0 °F 35.8 °F 37.4 °F 87% 29.78 in 10.0 mi WNW 8.1 mph - N/A   Clear
8:55 AM 41.0 °F 35.2 °F 39.2 °F 93% 29.78 in 10.0 mi WNW 9.2 mph - N/A   Clear
9:15 AM 42.8 °F 38.6 °F 41.0 °F 93% 29.79 in 10.0 mi WNW 6.9 mph - N/A   Clear
9:35 AM 44.6 °F 40.7 °F 41.0 °F 87% 29.79 in 10.0 mi WNW 6.9 mph - N/A   Clear
9:55 AM 46.4 °F 42.9 °F 37.4 °F 71% 29.80 in 10.0 mi WNW 6.9 mph - N/A   Clear
10:15 AM 46.4 °F 42.4 °F 37.4 °F 71% 29.80 in 10.0 mi WNW 8.1 mph - N/A   Clear
10:35 AM 48.2 °F - 39.2 °F 71% 29.81 in 10.0 mi WNW 8.1 mph - N/A   Clear
10:55 AM 50.0 °F - 39.2 °F 66% 29.81 in 10.0 mi NW 8.1 mph - N/A   Clear
11:15 AM 50.0 °F - 39.2 °F 66% 29.81 in 10.0 mi West 8.1 mph - N/A   Clear
11:35 AM 51.8 °F - 37.4 °F 58% 29.81 in 10.0 mi West 6.9 mph - N/A   Clear
11:55 AM 51.8 °F - 37.4 °F 58% 29.81 in 10.0 mi WNW 8.1 mph - N/A   Clear
12:15 PM 51.8 °F - 37.4 °F 58% 29.81 in 10.0 mi West 10.4 mph - N/A   Clear
12:35 PM 53.6 °F - 37.4 °F 54% 29.81 in 10.0 mi West 10.4 mph 17.3 mph N/A   Clear
12:55 PM 53.6 °F - 35.6 °F 51% 29.81 in 10.0 mi WNW 8.1 mph - N/A   Clear
1:15 PM 55.4 °F - 35.6 °F 47% 29.80 in 10.0 mi WNW 9.2 mph 20.7 mph N/A   Clear
1:35 PM 55.4 °F - 35.6 °F 47% 29.80 in 10.0 mi West 9.2 mph - N/A   Scattered Clouds
1:55 PM 55.4 °F - 35.6 °F 47% 29.79 in 10.0 mi West 9.2 mph - N/A   Scattered Clouds
2:15 PM 55.4 °F - 35.6 °F 47% 29.79 in 10.0 mi West 8.1 mph - N/A   Scattered Clouds
2:35 PM 55.4 °F - 35.6 °F 47% 29.79 in 10.0 mi WSW 11.5 mph - N/A   Scattered Clouds
2:55 PM 55.4 °F - 35.6 °F 47% 29.80 in 10.0 mi West 8.1 mph 16.1 mph N/A   Scattered Clouds
3:15 PM 57.2 °F - 35.6 °F 44% 29.80 in 10.0 mi WNW 10.4 mph - N/A   Scattered Clouds
3:35 PM 57.2 °F - 35.6 °F 44% 29.80 in 10.0 mi West 8.1 mph - N/A   Clear
3:55 PM 55.4 °F - 35.6 °F 47% 29.81 in 10.0 mi WSW 8.1 mph - N/A   Scattered Clouds
4:15 PM 55.4 °F - 35.6 °F 47% 29.81 in 10.0 mi West 9.2 mph - N/A   Scattered Clouds
4:35 PM 55.4 °F - 35.6 °F 47% 29.82 in 10.0 mi West 12.7 mph - N/A   Mostly Cloudy
4:55 PM 55.4 °F - 35.6 °F 47% 29.82 in 10.0 mi West 8.1 mph - N/A   Scattered Clouds
5:15 PM 55.4 °F - 35.6 °F 47% 29.83 in 10.0 mi WSW 9.2 mph - N/A   Scattered Clouds
5:35 PM 53.6 °F - 35.6 °F 51% 29.82 in 10.0 mi WSW 6.9 mph - N/A   Mostly Cloudy
5:55 PM 53.6 °F - 35.6 °F 51% 29.83 in 10.0 mi WSW 6.9 mph - N/A   Scattered Clouds
6:15 PM 51.8 °F - 35.6 °F 54% 29.83 in 10.0 mi West 5.8 mph - N/A   Clear
6:35 PM 51.8 °F - 35.6 °F 54% 29.83 in 10.0 mi West 6.9 mph - N/A   Clear
6:55 PM 51.8 °F - 35.6 °F 54% 29.84 in 10.0 mi West 8.1 mph - N/A   Clear
7:15 PM 50.0 °F - 35.6 °F 58% 29.85 in 10.0 mi West 6.9 mph - N/A   Clear
7:35 PM 50.0 °F - 35.6 °F 58% 29.85 in 10.0 mi WSW 5.8 mph - N/A   Clear
7:55 PM 46.4 °F 42.4 °F 35.6 °F 66% 29.86 in 10.0 mi SW 8.1 mph - N/A   Clear
8:15 PM 46.4 °F 44.3 °F 35.6 °F 66% 29.86 in 10.0 mi SW 4.6 mph - N/A   Clear
8:35 PM 44.6 °F 41.4 °F 35.6 °F 71% 29.87 in 10.0 mi SSW 5.8 mph - N/A   Clear
8:55 PM 44.6 °F 41.4 °F 35.6 °F 71% 29.87 in 10.0 mi SSW 5.8 mph - N/A   Clear
9:15 PM 44.6 °F 41.4 °F 35.6 °F 71% 29.86 in 10.0 mi SSW 5.8 mph - N/A   Clear
9:35 PM 42.8 °F 38.6 °F 35.6 °F 76% 29.87 in 10.0 mi SSW 6.9 mph - N/A   Clear
9:55 PM 42.8 °F 38.6 °F 35.6 °F 76% 29.88 in 10.0 mi SSW 6.9 mph - N/A   Clear
10:15 PM 42.8 °F 38.6 °F 37.4 °F 81% 29.89 in 10.0 mi SSW 6.9 mph - N/A   Clear
10:35 PM 42.8 °F 38.6 °F 35.6 °F 76% 29.90 in 10.0 mi SSW 6.9 mph - N/A   Clear
10:55 PM 42.8 °F 38.6 °F 35.6 °F 76% 29.90 in 10.0 mi SW 6.9 mph - N/A   Clear
11:15 PM 42.8 °F 38.6 °F 35.6 °F 76% 29.91 in 10.0 mi SW 6.9 mph - N/A   Clear
11:35 PM 42.8 °F 38.6 °F 35.6 °F 76% 29.91 in 10.0 mi SW 6.9 mph - N/A   Clear
11:55 PM 44.6 °F 40.7 °F 37.4 °F 76% 29.91 in 10.0 mi SW 6.9 mph - N/A   Clear